Elbow Lake, MN

12:50 PM CDT on March 23, 2017 (GMT -0500)
Elbow Lake

Weather History for KY63 - January, 2014

Change the Weather History Date:

Saturday, January 11, 2014

  Actual Average (KFFM) Record (KFFM)
Temperature  
Mean Temperature 20 °F -  
Max Temperature 28 °F 13 °F 47 °F (1990)
Min Temperature 13 °F -5 °F -33 °F (1977)
Degree Days  
Heating Degree Days 44    
Moisture  
Dew Point 20 °F    
Average Humidity 92    
Maximum Humidity 97    
Minimum Humidity 83    
Precipitation  
Precipitation 0.00 in - - ()
Sea Level Pressure  
Sea Level Pressure 29.57 in    
Wind  
Wind Speed 6 mph (NW)    
Max Wind Speed 21 mph    
Max Gust Speed 26 mph    
Visibility 10 miles    
Events      
Averages and records for this station are not official NWS values.
T = Trace of Precipitation, MM = Missing Value Source: NWS Daily Summary

Daily Weather History Graph

Daily Weather History Graph

Search for Another Location

Airport or City:

Trip Planner

Search our weather history database for the weather conditions in past years. The results will help you decide how hot, cold, wet, or windy it might be!

Date:

Astronomy

Jan. 11, 2014 Rise Set
Actual Time 8:03 AM CST 5:00 PM CST
Civil Twilight 7:30 AM CST 5:34 PM CST
Nautical Twilight 6:52 AM CST 6:11 PM CST
Astronomical Twilight 6:16 AM CST 6:47 PM CST
Moon 1:47 PM CST (1/11) 4:06 AM CST (1/11)
Length of Visible Light 10h 04m
Length of Day
8h 56m
Waxing Gibbous, 83% of the Moon is Illuminated
Jan 11
Waxing Gibbous
Jan 15
Full
Jan 23
Last Quarter
Jan 30
New
Feb 6
First Quarter

Hourly Weather History & Observations

Time (CST) Temp. Windchill Dew Point Humidity Pressure Visibility Wind Dir Wind Speed Gust Speed Precip Events Conditions
12:11 AM 15.3 °F - 13.8 °F 94% 29.47 in 10.0 mi Calm Calm - N/A   Clear
12:31 AM 13.8 °F - 11.8 °F 92% 29.47 in 10.0 mi Calm Calm - N/A   Clear
12:51 AM 14.0 °F - 12.2 °F 93% 29.47 in 10.0 mi Calm Calm - N/A   Clear
1:11 AM 13.1 °F - 11.3 °F 93% 29.47 in 10.0 mi Calm Calm - N/A   Scattered Clouds
1:31 AM 13.8 °F - 12.0 °F 93% 29.47 in 10.0 mi Calm Calm - N/A   Mostly Cloudy
1:51 AM 16.7 °F - 15.3 °F 94% 29.48 in 10.0 mi Calm Calm - N/A   Overcast
2:11 AM 18.5 °F - 17.4 °F 96% 29.48 in 10.0 mi Calm Calm - N/A   Overcast
2:31 AM 19.4 °F - 18.1 °F 95% 29.49 in 10.0 mi Calm Calm - N/A   Overcast
2:51 AM 20.3 °F - 19.2 °F 96% 29.50 in 10.0 mi Calm Calm - N/A   Overcast
3:11 AM 21.2 °F 10.1 °F 20.3 °F 96% 29.50 in 10.0 mi NW 10.4 mph - N/A   Overcast
3:31 AM 21.9 °F 9.2 °F 21.0 °F 96% 29.50 in 10.0 mi WNW 13.8 mph - N/A   Overcast
3:51 AM 22.1 °F 9.5 °F 21.2 °F 96% 29.51 in 10.0 mi NW 13.8 mph - N/A   Overcast
4:11 AM 22.6 °F 18.0 °F 21.7 °F 96% 29.51 in 10.0 mi NW 3.5 mph - N/A   Overcast
4:31 AM 23.5 °F 9.4 °F 22.8 °F 97% 29.52 in 7.0 mi NW 18.4 mph - N/A   Overcast
4:51 AM 23.5 °F 11.3 °F 22.8 °F 97% 29.52 in 10.0 mi NW 13.8 mph 21.9 mph N/A   Overcast
5:11 AM 23.5 °F 9.9 °F 22.8 °F 97% 29.52 in 10.0 mi NW 17.3 mph - N/A   Overcast
5:31 AM 23.5 °F 8.7 °F 22.6 °F 96% 29.53 in 10.0 mi NW 20.7 mph 25.3 mph N/A   Overcast
5:51 AM 23.2 °F 8.6 °F 22.1 °F 96% 29.53 in 10.0 mi NW 19.6 mph 26.5 mph N/A   Overcast
6:11 AM 23.5 °F 9.9 °F 22.5 °F 96% 29.55 in 10.0 mi NW 17.3 mph 25.3 mph N/A   Overcast
6:31 AM 23.4 °F 8.4 °F 21.9 °F 94% 29.56 in 10.0 mi NW 20.7 mph - N/A   Overcast
6:51 AM 23.0 °F 8.7 °F 21.2 °F 93% 29.57 in 10.0 mi NW 18.4 mph 24.2 mph N/A   Overcast
7:12 AM 22.6 °F 9.2 °F 20.7 °F 92% 29.58 in 10.0 mi NW 16.1 mph 21.9 mph N/A   Overcast
7:31 AM 22.6 °F 9.2 °F 20.7 °F 92% 29.59 in 10.0 mi NW 16.1 mph - N/A   Overcast
7:51 AM 22.6 °F 9.2 °F 20.5 °F 91% 29.59 in 10.0 mi NW 16.1 mph - N/A   Overcast
8:12 AM 23.0 °F 9.2 °F 21.0 °F 92% 29.60 in 10.0 mi NW 17.3 mph - N/A   Overcast
8:31 AM 23.0 °F 9.6 °F 20.8 °F 91% 29.60 in 10.0 mi NW 16.1 mph 21.9 mph N/A   Overcast
8:51 AM 22.8 °F 9.4 °F 20.7 °F 91% 29.61 in 10.0 mi NW 16.1 mph - N/A   Overcast
9:12 AM 22.8 °F 10.9 °F 20.8 °F 92% 29.62 in 10.0 mi NW 12.7 mph - N/A   Overcast
9:31 AM 22.6 °F 8.7 °F 21.2 °F 94% 29.64 in 7.0 mi NW 17.3 mph 21.9 mph N/A   Overcast
9:51 AM 22.6 °F 8.3 °F 21.2 °F 94% 29.65 in 10.0 mi NW 18.4 mph 21.9 mph N/A   Overcast
10:12 AM 23.0 °F 10.6 °F 22.1 °F 96% 29.65 in 7.0 mi NW 13.8 mph - N/A   Overcast
10:31 AM 23.9 °F 11.7 °F 22.6 °F 95% 29.65 in 10.0 mi NW 13.8 mph - N/A   Overcast
10:51 AM 24.4 °F 11.9 °F 23.0 °F 94% 29.65 in 10.0 mi NW 15.0 mph - N/A   Overcast
11:12 AM 24.8 °F 12.9 °F 23.5 °F 95% 29.65 in 10.0 mi NW 13.8 mph - N/A   Overcast
11:31 AM 25.2 °F 13.3 °F 23.0 °F 91% 29.65 in 10.0 mi NW 13.8 mph - N/A   Overcast
11:51 AM 25.5 °F 14.3 °F 23.4 °F 92% 29.65 in 10.0 mi WNW 12.7 mph 17.3 mph N/A   Overcast
12:12 PM 25.5 °F 14.9 °F 23.0 °F 90% 29.64 in 10.0 mi WNW 11.5 mph - N/A   Mostly Cloudy
12:31 PM 26.4 °F 15.0 °F 23.5 °F 89% 29.63 in 10.0 mi WNW 13.8 mph - N/A   Mostly Cloudy
12:51 PM 26.4 °F - 23.0 °F 87% 29.63 in 10.0 mi Calm Calm - N/A   Scattered Clouds
1:12 PM 26.6 °F - 22.8 °F 86% 29.62 in 10.0 mi Calm Calm - N/A   Scattered Clouds
1:31 PM 27.0 °F - 23.0 °F 85% 29.62 in 10.0 mi Calm Calm - N/A   Clear
1:52 PM 27.5 °F - 23.5 °F 85% 29.61 in 10.0 mi Calm Calm - N/A   Clear
2:12 PM 28.0 °F - 23.9 °F 84% 29.61 in 10.0 mi Calm Calm - N/A   Clear
2:31 PM 28.4 °F - 24.3 °F 84% 29.60 in 10.0 mi Calm Calm - N/A   Clear
2:52 PM 28.4 °F - 24.3 °F 84% 29.61 in 10.0 mi Calm Calm - N/A   Clear
3:12 PM 28.4 °F - 24.3 °F 84% 29.62 in 10.0 mi Calm Calm - N/A   Clear
3:31 PM 28.0 °F - 23.9 °F 84% 29.61 in 10.0 mi Calm Calm - N/A   Clear
3:52 PM 27.3 °F - 23.2 °F 84% 29.61 in 10.0 mi Calm Calm - N/A   Clear
4:12 PM 27.1 °F - 22.6 °F 83% 29.61 in 10.0 mi Calm Calm - N/A   Clear
4:31 PM 25.5 °F - 21.9 °F 86% 29.61 in 10.0 mi Calm Calm - N/A   Clear
4:52 PM 24.1 °F - 21.0 °F 88% 29.62 in 10.0 mi Calm Calm - N/A   Clear
5:11 PM 22.5 °F - 20.1 °F 91% 29.61 in 10.0 mi Calm Calm - N/A   Clear
5:32 PM 21.7 °F - 19.8 °F 92% 29.62 in 10.0 mi Calm Calm - N/A   Clear
5:51 PM 20.1 °F - 18.1 °F 92% 29.62 in 10.0 mi Calm Calm - N/A   Clear
6:11 PM 20.8 °F - 19.4 °F 94% 29.61 in 10.0 mi Calm Calm - N/A   Clear
6:32 PM 19.8 °F - 18.7 °F 96% 29.61 in 10.0 mi Calm Calm - N/A   Clear
6:51 PM 18.0 °F - 16.9 °F 96% 29.61 in 7.0 mi Calm Calm - N/A   Clear
7:11 PM 18.9 °F - 18.0 °F 96% 29.60 in 7.0 mi Calm Calm - N/A   Clear
7:32 PM 20.1 °F - 19.4 °F 97% 29.60 in 7.0 mi Calm Calm - N/A   Clear
7:51 PM 18.7 °F - 17.4 °F 95% 29.58 in 7.0 mi Calm Calm - N/A   Clear
8:11 PM 18.7 °F - 17.4 °F 95% 29.58 in 10.0 mi Calm Calm - N/A   Clear
8:32 PM 19.2 °F - 18.1 °F 96% 29.57 in 10.0 mi Calm Calm - N/A   Clear
8:51 PM 18.7 °F - 17.4 °F 95% 29.56 in 10.0 mi Calm Calm - N/A   Clear
9:11 PM 15.6 °F - 13.8 °F 93% 29.56 in 10.0 mi Calm Calm - N/A   Scattered Clouds
9:32 PM 19.4 °F - 18.0 °F 94% 29.54 in 10.0 mi Calm Calm - N/A   Overcast
9:51 PM 20.3 °F - 18.5 °F 93% 29.53 in 10.0 mi Calm Calm - N/A   Overcast
10:12 PM 21.2 °F - 18.5 °F 89% 29.52 in 10.0 mi Calm Calm - N/A   Overcast
10:31 PM 22.1 °F - 19.4 °F 89% 29.52 in 10.0 mi Calm Calm - N/A   Overcast
10:51 PM 22.5 °F 10.5 °F 19.8 °F 89% 29.50 in 10.0 mi SSE 12.7 mph - N/A   Overcast
11:11 PM 23.4 °F 11.1 °F 20.3 °F 88% 29.49 in 10.0 mi SSE 13.8 mph - N/A   Overcast
11:32 PM 23.0 °F 11.1 °F 20.1 °F 89% 29.47 in 10.0 mi SE 12.7 mph - N/A   Overcast
11:51 PM 23.9 °F 11.7 °F 20.7 °F 87% 29.46 in 10.0 mi SE 13.8 mph - N/A   Mostly Cloudy